TimeAKDT,TemperatureF,Dew PointF,Humidity,Sea Level PressureIn,VisibilityMPH,Wind Direction,Wind SpeedMPH,Gust SpeedMPH,PrecipitationIn,Events,Conditions,WindDirDegrees,DateUTC
12:53 AM,28.9,21.9,75,30.56,10.0,NE,9.2,-,N/A,,Clear,50,2012-10-10 08:53:00
1:53 AM,28.0,21.9,78,30.57,10.0,NE,6.9,-,N/A,,Clear,40,2012-10-10 09:53:00
2:53 AM,28.0,21.9,78,30.56,10.0,NE,5.8,-,N/A,,Clear,50,2012-10-10 10:53:00
3:53 AM,28.0,23.0,81,30.56,10.0,NE,6.9,-,N/A,,Clear,40,2012-10-10 11:53:00
4:53 AM,27.0,21.9,81,30.55,10.0,NE,8.1,-,N/A,,Clear,50,2012-10-10 12:53:00
5:53 AM,26.6,23.0,86,30.54,10.0,NE,6.9,-,N/A,,Clear,40,2012-10-10 13:53:00
6:53 AM,26.1,21.9,84,30.54,10.0,NE,3.5,-,N/A,,Clear,40,2012-10-10 14:53:00
7:53 AM,25.0,21.9,88,30.54,10.0,NE,4.6,-,N/A,,Clear,50,2012-10-10 15:53:00
8:53 AM,26.1,21.9,84,30.54,10.0,NE,6.9,-,N/A,,Clear,40,2012-10-10 16:53:00
9:53 AM,26.1,21.0,81,30.54,10.0,NE,9.2,-,N/A,,Clear,50,2012-10-10 17:53:00
10:53 AM,26.1,21.0,81,30.54,10.0,NE,5.8,-,N/A,,Clear,50,2012-10-10 18:53:00
11:53 AM,27.0,21.0,78,30.53,10.0,NE,8.1,-,N/A,,Clear,40,2012-10-10 19:53:00
12:53 PM,28.9,21.0,72,30.52,10.0,NE,4.6,-,N/A,,Clear,40,2012-10-10 20:53:00
1:53 PM,32.0,24.1,73,30.52,10.0,NNE,3.5,-,N/A,,Clear,30,2012-10-10 21:53:00
2:53 PM,32.0,24.1,73,30.51,10.0,North,3.5,-,N/A,,Clear,10,2012-10-10 22:53:00
3:53 PM,33.1,24.1,70,30.50,10.0,North,4.6,-,N/A,,Clear,360,2012-10-10 23:53:00
4:53 PM,34.0,21.0,59,30.48,10.0,NNE,4.6,-,N/A,,Scattered Clouds,30,2012-10-11 00:53:00
5:53 PM,34.0,21.9,61,30.47,10.0,NNE,5.8,-,N/A,,Partly Cloudy,30,2012-10-11 01:53:00
6:53 PM,30.9,21.9,69,30.45,10.0,NE,3.5,-,N/A,,Scattered Clouds,50,2012-10-11 02:53:00
7:53 PM,30.9,21.0,67,30.44,10.0,North,3.5,-,N/A,,Scattered Clouds,10,2012-10-11 03:53:00
8:53 PM,30.0,24.1,79,30.43,10.0,NNE,4.6,-,N/A,,Scattered Clouds,30,2012-10-11 04:53:00
9:53 PM,27.0,23.0,85,30.41,10.0,NE,3.5,-,N/A,,Clear,40,2012-10-11 05:53:00
10:53 PM,26.1,23.0,88,30.39,10.0,ENE,3.5,-,N/A,,Scattered Clouds,60,2012-10-11 06:53:00
11:53 PM,28.0,23.0,81,30.38,10.0,NE,5.8,-,N/A,,Scattered Clouds,40,2012-10-11 07:53:00